This is the latest recevied weather packets stored in our database for station/object KG4YZY-1. If no packets are shown the sender has not sent any weather packets the latest 10 day(s).
| Time | Temp. | Humidity | Pressure | Rain* | Wind** | Luminosity | Snow |
|---|---|---|---|---|---|---|---|
| 1787519404 | 23.89° C | 95% | 1016.7 hPa | 0.51 mm | - | - | - |
| 1787519104 | 23.89° C | 95% | 1016.8 hPa | 0.51 mm | - | - | - |
| 1787518804 | 23.89° C | 95% | 1016.9 hPa | 0.76 mm | - | - | - |
| 1787518504 | 23.89° C | 95% | 1017.1 hPa | 0.76 mm | - | - | - |
| 1787518204 | 23.89° C | 95% | 1017.2 hPa | 1.02 mm | - | - | - |
| 1787517904 | 23.89° C | 95% | 1017.3 hPa | 1.02 mm | - | - | - |
| 1787517604 | 23.89° C | 95% | 1017.3 hPa | 1.02 mm | - | - | - |
| 1787517304 | 23.89° C | 95% | 1017.3 hPa | 1.02 mm | - | - | - |
| 1787517004 | 23.89° C | 95% | 1017.3 hPa | 1.27 mm | - | - | - |
| 1787516704 | 23.89° C | 95% | 1017.4 hPa | 1.52 mm | - | - | - |
| 1787516404 | 23.89° C | 95% | 1017.3 hPa | 1.52 mm | - | - | - |
| 1787516104 | 23.89° C | 95% | 1017.4 hPa | 1.52 mm | - | - | - |
| 1787515804 | 23.89° C | 95% | 1017.5 hPa | 1.78 mm | - | - | - |
| 1787515503 | 23.89° C | 95% | 1017.6 hPa | 2.03 mm | - | - | - |
| 1787515204 | 23.89° C | 95% | 1017.7 hPa | 1.78 mm | - | - | - |
| 1787514904 | 23.89° C | 95% | 1017.7 hPa | 2.03 mm | - | - | - |
| 1787514604 | 23.89° C | 95% | 1017.6 hPa | 2.03 mm | - | - | - |
| 1787514304 | 23.89° C | 95% | 1017.5 hPa | 2.29 mm | - | - | - |
| 1787514004 | 23.89° C | 95% | 1017.4 hPa | 2.29 mm | - | - | - |
| 1787513704 | 23.89° C | 95% | 1017.5 hPa | 2.29 mm | - | - | - |
| 1787513403 | 23.89° C | 95% | 1017.7 hPa | 2.29 mm | - | - | - |
| 1787513103 | 23.89° C | 95% | 1017.9 hPa | 2.03 mm | - | - | - |
| 1787512803 | 23.89° C | 95% | 1018 hPa | 2.29 mm | - | - | - |
| 1787512504 | 23.89° C | 95% | 1018.1 hPa | 2.03 mm | - | - | - |
| 1787512203 | 23.89° C | 95% | 1018.3 hPa | 2.03 mm | - | - | - |
* Rain latest hour (hover to see other rain measurements)
** Current wind speed in m/s (hover to see current wind gust speed)